TimeCST,TemperatureF,Dew PointF,Humidity,Sea Level PressureIn,VisibilityMPH,Wind Direction,Wind SpeedMPH,Gust SpeedMPH,PrecipitationIn,Events,Conditions,WindDirDegrees,DateUTC
12:54 AM,37.9,36.0,93,29.85,6.0,NE,15.0,-,0.04,Rain,Rain,40,2013-11-06 06:54:00
1:54 AM,37.9,35.1,89,29.83,6.0,NNE,17.3,25.3,0.02,Rain,Light Rain,30,2013-11-06 07:54:00
2:54 AM,37.0,34.0,89,29.82,3.0,NNE,12.7,21.9,0.02,Snow,Light Snow,20,2013-11-06 08:54:00
3:54 AM,36.0,34.0,93,29.83,3.0,North,13.8,19.6,0.01,Snow,Light Snow,10,2013-11-06 09:54:00
4:51 AM,35.6,33.8,93,29.82,8.0,North,13.8,20.7,0.01,Rain,Light Rain,360,2013-11-06 10:51:00
4:54 AM,36.0,34.0,93,29.86,8.0,North,12.7,20.7,0.01,Rain,Light Rain,360,2013-11-06 10:54:00
5:54 AM,36.0,33.1,89,29.86,10.0,North,13.8,21.9,0.02,Rain,Light Rain,350,2013-11-06 11:54:00
6:49 AM,35.6,32.0,87,29.82,10.0,North,18.4,25.3,0.00,,Overcast,350,2013-11-06 12:49:00
6:54 AM,35.1,32.0,89,29.86,10.0,North,15.0,24.2,0.00,,Overcast,350,2013-11-06 12:54:00
7:15 AM,35.6,32.0,87,29.84,8.0,NNW,18.4,24.2,N/A,,Overcast,340,2013-11-06 13:15:00
7:54 AM,35.1,32.0,89,29.88,10.0,NNW,19.6,25.3,N/A,,Overcast,340,2013-11-06 13:54:00
8:54 AM,36.0,32.0,86,29.92,10.0,NNW,19.6,25.3,N/A,,Overcast,330,2013-11-06 14:54:00
9:54 AM,37.0,32.0,82,29.94,10.0,NNW,17.3,24.2,N/A,,Overcast,330,2013-11-06 15:54:00
10:03 AM,37.4,32.0,81,29.90,10.0,NNW,15.0,24.2,N/A,,Overcast,340,2013-11-06 16:03:00
10:43 AM,37.4,32.0,81,29.91,10.0,NW,17.3,-,N/A,,Overcast,320,2013-11-06 16:43:00
10:54 AM,37.9,32.0,79,29.95,10.0,NW,18.4,-,N/A,,Overcast,320,2013-11-06 16:54:00
11:35 AM,39.2,32.0,75,29.92,10.0,NW,19.6,-,N/A,,Overcast,320,2013-11-06 17:35:00
11:45 AM,39.2,32.0,75,29.93,10.0,NNW,17.3,-,N/A,,Overcast,330,2013-11-06 17:45:00
11:54 AM,39.0,30.9,73,29.96,10.0,NW,17.3,-,N/A,,Overcast,310,2013-11-06 17:54:00
12:30 PM,-9999,-9999,N/A,29.93,-9999.0,North,-9999.0,-,N/A,,Unknown,0,2013-11-06 18:30:00
12:54 PM,-9999,-9999,N/A,29.93,-9999.0,North,-9999.0,-,N/A,,Unknown,0,2013-11-06 18:54:00
1:54 PM,39.9,27.0,60,29.99,10.0,WNW,16.1,28.8,N/A,,Clear,300,2013-11-06 19:54:00
2:54 PM,39.0,24.1,55,30.01,10.0,WNW,17.3,26.5,N/A,,Clear,300,2013-11-06 20:54:00
3:54 PM,37.9,23.0,55,30.04,10.0,NW,20.7,27.6,N/A,,Clear,310,2013-11-06 21:54:00
4:54 PM,35.1,23.0,61,30.08,10.0,NW,10.4,-,N/A,,Clear,310,2013-11-06 22:54:00
5:54 PM,33.1,23.0,66,30.09,10.0,WNW,10.4,-,N/A,,Clear,300,2013-11-06 23:54:00
6:54 PM,32.0,21.9,66,30.11,10.0,WNW,8.1,-,N/A,,Clear,290,2013-11-07 00:54:00
7:54 PM,30.9,21.9,69,30.12,10.0,West,6.9,-,N/A,,Clear,270,2013-11-07 01:54:00
8:54 PM,30.9,23.0,72,30.13,10.0,West,9.2,-,N/A,,Clear,280,2013-11-07 02:54:00
9:54 PM,30.9,23.0,72,30.15,10.0,WNW,9.2,-,N/A,,Clear,290,2013-11-07 03:54:00
10:54 PM,28.9,23.0,78,30.15,10.0,West,5.8,-,N/A,,Clear,280,2013-11-07 04:54:00
11:54 PM,28.0,24.1,85,30.16,10.0,NW,6.9,-,N/A,,Clear,310,2013-11-07 05:54:00